If you wish to contribute or participate in the discussions about articles you are invited to join SKYbrary as a registered user

 Actions

Siem Reap International Airport

From SKYbrary Wiki

VDSR
Airport
ICAO: VDSR – IATA: REP
Summary
Name Siem Reap International Airport
Region Asia and Pacific
Territory Cambodia KH.gif
Location Siem Reap, Siem Reap
Serving Siem Reap
Elevation 18.288 m
60 ft
60 ft18.288 m
Coordinates 13° 24' 41.87" N, 103° 48' 46.76" E
Runways
Designator Length Width Surface ROPS
5/23 2550 m8,366.142 ft
45 m147.638 ft
CON yes/yes


METAR
Observation VDSR 181300Z VRB02KT 8000 SCT015 FEW017CB SCT040 26/25 Q1007 CB
Station Siemreap
Date/Time 18 September 2019 13:00:00
Wind direction °
Wind speed 02 kts
Lowest cloud amount scattered clouds
Temperature 26°C
Dew point 25°C
Humidity 94%
QNH 1007 hPa
Weather condition n/a

Siem Reap International Airport is the airport in Cambodia handling the greatest number of passengers. It is located in Siem Reap, home of Angkor Wat.

Climatology

Tropical Savanna climate (Köppen climate classification Aw)

Maps

Terrain

Loading map...

Airport Layout

Loading map...


Accidents & Serious Incidents at or in vicinity of VDSR

None on SKYbrary